Regional Weather Roundup
Issued by NWS

Home | Current Version | Previous Version | Graphics & Text | Print | Product List | Glossary On
Versions: 1 2 3 4 5 6 7 8 9 10 11 12 13 14 15 16 17 18 19 20 21 22 23 24 25 26 27 28 29 30 31 32 33 34 35 36 37 38 39 40 41 42 43 44 45 46 47 48 49 50
000
ASUS43 KTOP 041659
RWRKS

WEATHER ROUNDUP FOR KANSAS
NATIONAL WEATHER SERVICE GOODLAND KS
1100 AM CST WED MAR 04 2015

NOTE:  "FAIR" INDICATES FEW OR NO CLOUDS BELOW 12,000 FEET WITH NO
SIGNIFICANT WEATHER AND/OR OBSTRUCTIONS TO VISIBILITY.

KSZ001>006-013>018-027>032-041>047-041800-
NORTHWEST KANSAS

CITY           SKY/WX    TMP DP  RH WIND       PRES   REMARKS
GOODLAND       CLOUDY    21   9  59 N12       30.23F WCI   9
HAYS           PTSUNNY   23   5  46 N15       30.31F WCI  10
HILL CITY      MOSUNNY   25  10  53 N10       30.32S WCI  15
RUSSELL        PTSUNNY   26   8  46 N17       30.30F WCI  13
$$

KSZ061>065-074>080-084>089-041800-
SOUTHWEST KANSAS

CITY           SKY/WX    TMP DP  RH WIND       PRES   REMARKS
DODGE CITY     LGT SNOW  20  13  74 NE16      30.26F WCI   6
ELKHART          N/A     19  11  71 N13         N/A  WCI   6
GARDEN CITY    CLOUDY    20  13  74 NE16      30.26S WCI   6
GREAT BEND     PTSUNNY   21  10  63 N13       30.33R WCI   9
LIBERAL        PTSUNNY   21  14  73 NE17      30.26R WCI   7
$$

KSZ066>073-081>083-090>101-041800-
SOUTHEAST KANSAS

CITY           SKY/WX    TMP DP  RH WIND       PRES   REMARKS
CHANUTE        FLURRIES  23  14  68 N16G23    30.28R WCI  10
COFFEYVILLE    FLURRIES  23  15  71 N17       30.28R WCI   9
HUTCHINSON     CLOUDY    24  10  55 N16G24    30.32R WCI  11
MEDICINE LODGE   N/A     23  14  68 N18       30.30R WCI   9
NEWTON         CLOUDY    21  10  63 N17       30.30R WCI   7
PARSONS        LGT SNOW  24  16  71 N9G20     30.27F
WICHITA INTL   CLOUDY    23  14  68 N13       30.30R WCI  11
WICHITA JABRA  CLOUDY    22  14  71 N17       30.29R WCI   8
WINFIELD       CLOUDY    23  16  74 N16       30.29R WCI  10
$$

KSZ007>012-019>026-033>040-048>060-102>105-041800-
NORTHEAST KANSAS

CITY           SKY/WX    TMP DP  RH WIND       PRES   REMARKS
CONCORDIA      SUNNY     27   1  32 N16G23    30.33R WCI  15
EMPORIA        CLOUDY    24  13  62 N18       30.28F WCI  10
LAWRENCE       CLOUDY    25   6  44 N16       30.32F WCI  12
MANHATTAN      MOSUNNY   28   8  43 NE15G21   30.33F WCI  16
OLATHE IND     CLOUDY    23  11  60 N14       30.30S WCI  11
OLATHE EXE     CLOUDY    22   8  55 N17       30.28S WCI   8
SALINA         PTSUNNY   28   7  41 N16       30.32F WCI  16
TOPEKA BILLARD CLOUDY    26   9  48 N16       30.33F WCI  14
TOPEKA FORBES  PTSUNNY   25   9  50 N15G22    30.30F WCI  13
$$



USA.gov is the U.S. government's official web portal to all federal, state and local government web resources and services.